Flag for Germany Past Weather in Singen (Hohentwiel), Baden-Württemberg, Germany — Yesterday and Last 2 Weeks

Now
57 °F

Partly sunny.


Feels Like: 57 °F
Forecast: 46 / 77 °F
Wind: 2 mph from North

Location: Zurich-Kloten

Current Time: Jun 27, 2016 at 8:01:48 AM

Latest Report: Jun 27, 2016 at 7:20 AM


Visibility: N/A

Pressure: 30.21 "Hg

Humidity: 82%

Dew Point: 52 °F

Location of Singen (Hohentwiel)Location

Past Weather in Singen (Hohentwiel) — Graph

°F

Singen (Hohentwiel) Temperature Yesterday

Maximum temperature yesterday: 68 °F (at 12:20 PM)
Minimum temperature yesterday: 57 °F (at 3:50 AM)
Average temperature yesterday: 63 °F

High & Low Weather Summary for the Past Weeks

 TemperatureHumidityPressure
High90 °F (Jun 23, 4:20 PM)100% (Jun 13, 4:50 AM)30.27 "Hg (Jun 13, 4:50 AM)
Low50 °F (Jun 17, 5:20 AM)38% (Jun 24, 3:50 PM)29.59 "Hg (Jun 15, 4:50 AM)
Average63 °F80%29.99 "Hg
* Reported Jun 12 7:20 AM — Jun 27 7:20 AM, Singen (Hohentwiel), Weather by CustomWeather, © 2016

Note: Actual official high and low records may vary slightly from our data, if they occured in-between our weather recording intervals... More about our weather records

Advertising

Singen (Hohentwiel) Weather History for the Previous 24 Hours

Scroll right to see more
 ConditionsComfort  
Time TempWeatherWind HumidityBarometerVisibility
7:20 AM
Mon, Jun 27
57 °FPartly sunny.2 mph82%30.21 "HgN/A
6:50 AM57 °FSunny.1 mph88%30.18 "Hg10 mi
6:20 AM55 °FPassing clouds.1 mph94%30.18 "HgN/A
5:50 AM55 °FPassing clouds.3 mph94%30.18 "HgN/A
5:20 AM55 °FPassing clouds.3 mph94%30.18 "HgN/A
4:50 AM55 °FPassing clouds.1 mph94%30.18 "HgN/A
4:20 AM57 °FPassing clouds.No wind88%30.18 "HgN/A
3:50 AM57 °FPassing clouds.3 mph88%30.18 "HgN/A
3:20 AM55 °FPassing clouds.No wind94%30.18 "HgN/A
2:50 AM57 °FPassing clouds.No wind88%30.18 "HgN/A
1:50 AM59 °FPassing clouds.2 mph88%30.15 "HgN/A
1:20 AM59 °FPassing clouds.3 mph88%30.15 "HgN/A
12:50 AM59 °FPartly cloudy.No wind88%30.18 "HgN/A
12:20 AM61 °FPassing clouds.3 mph77%30.18 "HgN/A
11:50 PM
Sun, Jun 26
61 °FSprinkles. Passing clouds.2 mph83%30.15 "HgN/A
11:20 PM63 °FPassing clouds.5 mph73%30.15 "HgN/A
10:50 PM61 °FPartly cloudy.No wind77%30.12 "HgN/A
10:20 PM63 °FBroken clouds.2 mph73%30.12 "HgN/A
9:50 PM63 °FPartly sunny.3 mph73%30.12 "HgN/A
9:20 PM63 °FPartly sunny.3 mph73%30.12 "HgN/A
8:50 PM64 °FBroken clouds.5 mph68%30.12 "HgN/A
8:20 PM64 °FBroken clouds.2 mph68%30.09 "HgN/A
7:50 PM64 °FBroken clouds.3 mph68%30.09 "HgN/A
7:20 PM64 °FBroken clouds.3 mph68%30.09 "HgN/A
6:50 PM66 °FBroken clouds.2 mph64%30.09 "HgN/A
6:20 PM66 °FPartly sunny.2 mph60%30.09 "HgN/A
5:50 PM66 °FPartly sunny.2 mph64%30.09 "HgN/A
5:20 PM66 °FBroken clouds.2 mph64%30.09 "HgN/A
4:50 PM68 °FMostly cloudy.No wind56%30.09 "HgN/A
4:20 PM68 °FBroken clouds.1 mph53%30.09 "HgN/A
3:50 PM68 °FPartly sunny.2 mph53%30.09 "HgN/A
3:20 PM68 °FBroken clouds.1 mph46%30.09 "HgN/A
2:50 PM68 °FPartly sunny.1 mph49%30.09 "HgN/A
2:20 PM68 °FPartly sunny.3 mph46%30.09 "HgN/A
1:50 PM68 °FPartly sunny.6 mph49%30.09 "HgN/A
1:20 PM68 °FPartly sunny.6 mph49%30.12 "HgN/A
12:50 PM68 °FPartly sunny.5 mph53%30.12 "HgN/A
12:20 PM68 °FPartly sunny.3 mph53%30.12 "HgN/A
11:50 AM66 °FPartly sunny.3 mph64%30.12 "HgN/A
11:20 AM64 °FPartly sunny.3 mph68%30.12 "HgN/A
10:50 AM64 °FPartly sunny.1 mph68%30.12 "HgN/A
10:20 AM63 °FPartly sunny.2 mph77%30.12 "HgN/A
9:50 AM63 °FPartly sunny.1 mph77%30.12 "HgN/A
9:20 AM61 °FPartly sunny.2 mph83%30.12 "HgN/A
8:50 AM59 °FPartly sunny.1 mph88%30.12 "HgN/A
8:20 AM59 °FPartly sunny.5 mph88%30.12 "HgN/A
Weather by CustomWeather, © 2016

See weather overviewHow to use our weather pages